Weather History for KSTF - February, 2013

Change the Weather History Date:

Wednesday, February 27, 2013

  Actual Average Record
Temperature  
Mean Temperature 46 °F -  
Max Temperature 59 °F 59 °F 68 °F (2012)
Min Temperature 32 °F 37 °F 19 °F (2014)
Degree Days  
Heating Degree Days 20    
Moisture  
Dew Point 34 °F    
Average Humidity 72    
Maximum Humidity 100    
Minimum Humidity 36    
Precipitation  
Precipitation 0.00 in - - ()
Sea Level Pressure  
Sea Level Pressure 29.94 in    
Wind  
Wind Speed 3 mph (West)    
Max Wind Speed 15 mph    
Max Gust Speed 22 mph    
Visibility 10 miles    
Events      
Averages and records for this station are not official NWS values.
T = Trace of Precipitation, MM = Missing Value Source: NWS Daily Summary

Daily Weather History Graph

Daily Weather History Graph

Search for Another Location

Airport or City:

Trip Planner

Search our weather history database for the weather conditions in past years. The results will help you decide how hot, cold, wet, or windy it might be!

Date:

Astronomy

Feb. 27, 2013 Rise Set
Actual Time 6:25 AM CST 5:50 PM CST
Civil Twilight 6:00 AM CST 6:15 PM CST
Nautical Twilight 5:31 AM CST 6:44 PM CST
Astronomical Twilight 5:03 AM CST 7:13 PM CST
Moon 8:01 PM CST (2/27) 7:09 AM CST (2/27)
Length of Visible Light 12h 14m
Length of Day
11h 25m
Waning Gibbous, 96% of the Moon is Illuminated
Feb 27
Waning Gibbous
Mar 4
Last Quarter
Mar 11
New
Mar 19
First Quarter
Mar 27
Full

Hourly Weather History & Observations

Time (CST) Temp. Windchill Dew Point Humidity Pressure Visibility Wind Dir Wind Speed Gust Speed Precip Events Conditions
12:15 AM 42.8 °F - 35.6 °F 76% 29.88 in 10.0 mi Calm Calm - N/A   Overcast
12:35 AM 42.8 °F - 35.6 °F 76% 29.89 in 10.0 mi Calm Calm - N/A   Overcast
12:55 AM 41.0 °F - 35.6 °F 81% 29.89 in 10.0 mi Calm Calm - N/A   Overcast
1:35 AM 37.4 °F - 35.6 °F 93% 29.89 in 10.0 mi Calm Calm - N/A   Scattered Clouds
1:55 AM 37.4 °F - 35.6 °F 93% 29.90 in 10.0 mi Calm Calm - N/A   Clear
2:15 AM 35.6 °F - 33.8 °F 93% 29.90 in 10.0 mi Calm Calm - N/A   Clear
2:35 AM 35.6 °F - 33.8 °F 93% 29.90 in 10.0 mi Calm Calm - N/A   Clear
2:55 AM 35.6 °F - 33.8 °F 93% 29.90 in 10.0 mi Calm Calm - N/A   Clear
3:15 AM 35.6 °F - 33.8 °F 93% 29.91 in 10.0 mi Calm Calm - N/A   Clear
3:35 AM 35.6 °F - 33.8 °F 93% 29.90 in 10.0 mi Calm Calm - N/A   Clear
3:55 AM 33.8 °F - 32.0 °F 93% 29.90 in 10.0 mi Calm Calm - N/A   Clear
4:15 AM 32.0 °F - 32.0 °F 100% 29.91 in 10.0 mi Calm Calm - N/A   Clear
4:35 AM 32.0 °F - 32.0 °F 100% 29.90 in 7.0 mi Calm Calm - N/A   Clear
4:55 AM 32.0 °F - 30.2 °F 93% 29.91 in 7.0 mi Calm Calm - N/A   Clear
5:15 AM 32.0 °F - 32.0 °F 100% 29.91 in 5.0 mi Calm Calm - N/A   Clear
5:35 AM 32.0 °F - 30.2 °F 93% 29.92 in 7.0 mi Calm Calm - N/A   Clear
5:55 AM 32.0 °F - 32.0 °F 100% 29.92 in 7.0 mi Calm Calm - N/A   Clear
6:15 AM 32.0 °F - 30.2 °F 93% 29.92 in 5.0 mi Calm Calm - N/A   Clear
6:35 AM 32.0 °F - 30.2 °F 93% 29.92 in 5.0 mi Calm Calm - N/A   Clear
6:55 AM 32.0 °F - 32.0 °F 100% 29.93 in 5.0 mi Calm Calm - N/A   Clear
7:15 AM 32.0 °F - 32.0 °F 100% 29.94 in 10.0 mi Calm Calm - N/A   Clear
7:35 AM 33.8 °F - 33.8 °F 100% 29.94 in 10.0 mi Calm Calm - N/A   Clear
8:15 AM 41.0 °F 38.0 °F 33.8 °F 76% 29.95 in 10.0 mi WNW 4.6 mph - N/A   Clear
8:35 AM 41.0 °F 36.4 °F 33.8 °F 76% 29.95 in 10.0 mi WNW 6.9 mph - N/A   Clear
8:55 AM 42.8 °F 39.3 °F 33.8 °F 70% 29.95 in 10.0 mi West 5.8 mph - N/A   Clear
9:15 AM 42.8 °F 40.1 °F 33.8 °F 70% 29.96 in 10.0 mi WNW 4.6 mph - N/A   Clear
9:35 AM 44.6 °F 40.7 °F 33.8 °F 66% 29.96 in 10.0 mi West 6.9 mph - N/A   Clear
9:55 AM 44.6 °F 41.4 °F 35.6 °F 71% 29.96 in 10.0 mi SW 5.8 mph - N/A   Clear
10:15 AM 46.4 °F 42.9 °F 35.6 °F 66% 29.96 in 10.0 mi WSW 6.9 mph - N/A   Clear
10:35 AM 50.0 °F - 35.6 °F 58% 29.97 in 10.0 mi West 6.9 mph - N/A   Clear
10:55 AM 50.0 °F - 33.8 °F 54% 29.97 in 10.0 mi West 12.7 mph 19.6 mph N/A   Clear
11:15 AM 51.8 °F - 35.6 °F 54% 29.96 in 10.0 mi WSW 10.4 mph 16.1 mph N/A   Clear
11:35 AM 51.8 °F - 35.6 °F 54% 29.96 in 10.0 mi West 6.9 mph - N/A   Clear
11:55 AM 53.6 °F - 33.8 °F 47% 29.96 in 10.0 mi West 11.5 mph 18.4 mph N/A   Clear
12:55 PM 55.4 °F - 33.8 °F 44% 29.94 in 10.0 mi WSW 10.4 mph 19.6 mph N/A   Clear
1:15 PM 55.4 °F - 33.8 °F 44% 29.93 in 10.0 mi West 12.7 mph 20.7 mph N/A   Clear
1:35 PM 57.2 °F - 32.0 °F 38% 29.92 in 10.0 mi West 11.5 mph 19.6 mph N/A   Clear
1:55 PM 57.2 °F - 32.0 °F 38% 29.91 in 10.0 mi West 11.5 mph 18.4 mph N/A   Clear
2:15 PM 59.0 °F - 33.8 °F 39% 29.91 in 10.0 mi SW 11.5 mph 18.4 mph N/A   Clear
2:35 PM 59.0 °F - 32.0 °F 36% 29.91 in 10.0 mi WSW 12.7 mph 18.4 mph N/A   Clear
2:55 PM 59.0 °F - 33.8 °F 39% 29.91 in 10.0 mi WSW 12.7 mph 20.7 mph N/A   Clear
3:15 PM 57.2 °F - 33.8 °F 41% 29.91 in 10.0 mi WSW 13.8 mph 20.7 mph N/A   Clear
3:35 PM 57.2 °F - 33.8 °F 41% 29.91 in 10.0 mi WSW 10.4 mph 19.6 mph N/A   Clear
3:55 PM 57.2 °F - 33.8 °F 41% 29.91 in 10.0 mi West 15.0 mph 20.7 mph N/A   Clear
4:15 PM 55.4 °F - 33.8 °F 44% 29.91 in 10.0 mi West 13.8 mph 21.9 mph N/A   Clear
4:35 PM 53.6 °F - 33.8 °F 47% 29.92 in 10.0 mi West 6.9 mph 18.4 mph N/A   Clear
4:55 PM 53.6 °F - 33.8 °F 47% 29.93 in 10.0 mi West 5.8 mph 17.3 mph N/A   Mostly Cloudy
5:15 PM 53.6 °F - 35.6 °F 51% 29.94 in 10.0 mi West 6.9 mph 16.1 mph N/A   Scattered Clouds
5:35 PM 51.8 °F - 35.6 °F 54% 29.96 in 10.0 mi WNW 10.4 mph 16.1 mph N/A   Mostly Cloudy
5:55 PM 51.8 °F - 35.6 °F 54% 29.96 in 10.0 mi WNW 5.8 mph - N/A   Overcast
6:15 PM 50.0 °F - 35.6 °F 58% 29.96 in 10.0 mi WNW 6.9 mph - N/A   Overcast
6:35 PM 50.0 °F - 35.6 °F 58% 29.97 in 10.0 mi WNW 3.5 mph - N/A   Mostly Cloudy
6:55 PM 48.2 °F - 37.4 °F 66% 29.97 in 10.0 mi NNW 5.8 mph - N/A   Mostly Cloudy
7:15 PM 46.4 °F 45.2 °F 37.4 °F 71% 29.97 in 10.0 mi NW 3.5 mph - N/A   Mostly Cloudy
7:35 PM 46.4 °F - 37.4 °F 71% 29.98 in 10.0 mi Calm Calm - N/A   Scattered Clouds
7:55 PM 44.6 °F - 37.4 °F 76% 29.98 in 10.0 mi Calm Calm - N/A   Clear
8:15 PM 44.6 °F - 37.4 °F 76% 29.98 in 10.0 mi Calm Calm - N/A   Clear
8:35 PM 42.8 °F - 37.4 °F 81% 29.99 in 10.0 mi Calm Calm - N/A   Clear
8:55 PM 41.0 °F - 37.4 °F 87% 29.99 in 10.0 mi Calm Calm - N/A   Clear
9:15 PM 42.8 °F - 35.6 °F 76% 29.99 in 10.0 mi Calm Calm - N/A   Clear
9:35 PM 41.0 °F - 35.6 °F 81% 30.00 in 10.0 mi Calm Calm - N/A   Clear
9:55 PM 41.0 °F - 35.6 °F 81% 30.01 in 10.0 mi Calm Calm - N/A   Clear
10:15 PM 41.0 °F - 35.6 °F 81% 30.00 in 10.0 mi Calm Calm - N/A   Clear
10:35 PM 39.2 °F - 35.6 °F 87% 30.00 in 10.0 mi Calm Calm - N/A   Clear
10:55 PM 35.6 °F - 33.8 °F 93% 30.00 in 10.0 mi Calm Calm - N/A   Clear
11:35 PM 35.6 °F - 33.8 °F 93% 29.99 in 10.0 mi Calm Calm - N/A   Clear
11:55 PM 33.8 °F - 33.8 °F 100% 30.00 in 10.0 mi Calm Calm - N/A   Clear